Regional Weather Roundup
Issued by NWS

Home | Current Version | Previous Version | Graphics & Text | Print | Product List | Glossary On
Versions: 1 2 3 4 5 6 7 8 9 10 11 12 13 14 15 16 17 18 19 20 21 22 23 24 25 26 27 28 29 30 31 32 33 34 35 36 37 38 39 40 41 42 43 44 45 46 47 48 49 50
000
ASUS45 KABQ 280201
RWRNM
NEW MEXICO REGIONAL WEATHER ROUNDUP
NATIONAL WEATHER SERVICE ALBUQUERQUE NM
800 PM MDT WED JUL 27 2016

NOTE: "FAIR" MEANS FEW OR NO CLOUDS BELOW 12,000 FEET AGL WITH NO
       SIGNIFICANT WEATHER OR OBSTRUCTIONS TO VISION.

      THIS PRODUCT IS RELEASED AS TWO VERSIONS.  ONE VERSION NEAR
      THE TOP OF THE HOUR CONTAINING PRELIMINARY DATA FROM ALBUQUERQUE
      AND OTHER STATIONS.  A FINAL VERSION WITH ADDITIONAL DATA IS
      ISSUED ABOUT 10 MINUTES AFTER THE HOUR.

NMZ501-503-504-510>518-280300-
NORTHWEST PLATEAU/NORTHCENTRAL MOUNTAINS

CITY           SKY/WX    TMP DP  RH WIND       PRES   REMARKS
FARMINGTON     FAIR      94  28   9 N14       30.04S
LOS ALAMOS     FAIR      78  40  25 SW10      30.27R
SANTA FE       FAIR      81  47  30 S14       30.19R
TAOS           FAIR      81  37  21 SE13G21   30.26R
ANGEL FIRE     FAIR      71  38  29 NE8       30.39S

$$
NMZ402-403-502-505>509-280300-
WESTCENTRAL MOUNTAINS/SOUTHWEST MOUNTAINS

CITY           SKY/WX    TMP DP  RH WIND       PRES   REMARKS
GALLUP         FAIR      89  32  13 N12       30.19R
GRANTS         FAIR      88  28  11 N7        30.19R
SILVER CITY    FAIR      75  63  67 N7        30.15R

$$
NMZ407-409-411-412-280300-
SOUTHERN DESERTS

CITY           SKY/WX    TMP DP  RH WIND       PRES   REMARKS
LORDSBURG      FAIR      79  61  53 N8        30.06R
DEMING         FAIR      80  66  62 NW6       30.04R
LAS CRUCES     FAIR      85  53  32 SE8       30.06S
HOLLOMAN AFB   FAIR      90  55  30 S10       30.01R
ALAMOGORDO     FAIR      86  57  37 S8        30.04R
T OR C         FAIR      88  54  31 E8        30.06R

$$
NMZ519>523-280300-
CENTRAL VALLEYS/CENTRAL HIGHLANDS

CITY           SKY/WX    TMP DP  RH WIND       PRES   REMARKS
ALBUQUERQUE    MOCLDY    85  44  23 SE15      30.10S
DOUBLE EAGLE   MOCLDY    82  54  36 MISG      30.14F
MORIARTY ARPT  FAIR      72  55  54 N5        30.21R
CLINES CORNERS FAIR      72  51  47 SE7       30.28R
BELEN          FAIR      87  38  17 E12G18    30.10R
SOCORRO        MOCLDY    85  61  43 E13       30.08R

$$
NMZ524>526-539-540-280300-
SOUTHCENTRAL MOUNTAINS

CITY           SKY/WX    TMP DP  RH WIND       PRES   REMARKS
RUIDOSO          N/A     73  50  43 SE7       30.29R

$$
NMZ527>531-280300-
NORTHEAST HIGHLANDS/NORTHEAST PLAINS

CITY           SKY/WX    TMP DP  RH WIND       PRES   REMARKS
LAS VEGAS      FAIR      73  45  36 S8        30.25R
RATON          FAIR      78  50  37 CALM      30.21R
CLAYTON        FAIR      75  61  61 SE10      30.16R

$$
NMZ532>537-280300-
EASTCENTRAL PLAINS

CITY           SKY/WX    TMP DP  RH WIND       PRES   REMARKS
TUCUMCARI      FAIR      79  59  50 SE9       30.05S
CANNON AFB     MOCLDY    77  61  58 S5        30.08F
CLOVIS AIRPORT FAIR      77  57  50 SW8       30.08F

$$
NMZ028-029-538-280300-
SOUTHEAST PLAINS

CITY           SKY/WX    TMP DP  RH WIND       PRES   REMARKS
ROSWELL        FAIR      81  60  48 S9        30.03R
ARTESIA        FAIR      93  52  24 E5        30.01R
CARLSBAD       MOCLDY    91  55  29 SE12      29.97R
HOBBS          FAIR      82  57  42 NE9       30.04S


$$




USA.gov is the U.S. government's official web portal to all federal, state and local government web resources and services.